User: anonymous   Login
Location: Observatorio Las Palmas
(29.0667°N, 110.9333°W)
Time: 09:51:40
(UTC-07:00)
Language:

Skynet4D Del rocket - Orbit

View from above orbital plane
View from above orbital plane
View from above satellite
View from above satellite

Ground track
Ground track

The orbit data is extracted from the following two-line orbital elements,

1 25135U 98002B   17349.94365816 +.00000155 +00000-0 +33984-4 0  9993
2 25135 026.8839 273.8276 0356518 131.2881 300.8276 13.62358613993028
Epoch (UTC): 15 December 2017 22:38:52
Eccentricity: 0.0356518
inclination: 26.8839°
perigee height: 763 km
apogee height: 1291 km
right ascension of ascending node: 273.8276°
argument of perigee: 131.2881°
revolutions per day: 13.62358613
mean anomaly at epoch: 300.8276°
orbit number at epoch: 99302

The dashed part of the orbit path shows where the satellite is in the earth's shadow,  

DLR